Regional Weather Roundup
Issued by NWS

Home | Current Version | Previous Version | Text Only | Print | Product List | Glossary On
Versions: 1 2 3 4 5 6 7 8 9 10 11 12 13 14 15 16 17 18 19 20 21 22 23 24 25 26 27 28 29 30 31 32 33 34 35 36 37 38 39 40 41 42 43 44 45 46 47 48 49 50
000
ASUS43 KTOP 302159
RWRKS

WEATHER ROUNDUP FOR KANSAS
NATIONAL WEATHER SERVICE GOODLAND KS
500 PM CDT THU OCT 30 2014

NOTE:  "FAIR" INDICATES FEW OR NO CLOUDS BELOW 12,000 FEET WITH NO
SIGNIFICANT WEATHER AND/OR OBSTRUCTIONS TO VISIBILITY.

KSZ001>006-013>018-027>032-041>047-302300-
NORTHWEST KANSAS

CITY           SKY/WX    TMP DP  RH WIND       PRES   REMARKS
GOODLAND       SUNNY     65  25  22 N17G24    30.29R
HAYS           SUNNY     68  30  24 N18G25    30.20R
HILL CITY      SUNNY     68  30  24 N16G25    30.22R
RUSSELL        SUNNY     67  32  27 N16G30    30.17R
$$

KSZ061>065-074>080-084>089-302300-
SOUTHWEST KANSAS

CITY           SKY/WX    TMP DP  RH WIND       PRES   REMARKS
DODGE CITY     SUNNY     68  26  20 N18G29    30.23R
ELKHART          N/A     68  31  25 N5          N/A
GARDEN CITY    SUNNY     67  26  21 N16G23    30.25R
GREAT BEND     SUNNY     68  34  28 N17G25    30.19R
LIBERAL        SUNNY     70  28  21 N17G23    30.26S
$$

KSZ066>073-081>083-090>101-302300-
SOUTHEAST KANSAS

CITY           SKY/WX    TMP DP  RH WIND       PRES   REMARKS
CHANUTE        SUNNY     70  36  28 N15G30    30.06R
COFFEYVILLE    SUNNY     71  37  28 NW16      30.06R
HUTCHINSON     SUNNY     71  32  23 N18G30    30.14S
MEDICINE LODGE   N/A     73  32  22 N15G26    30.15S
NEWTON         SUNNY     68  34  28 NW18G25   30.14S
PARSONS        SUNNY     72  37  28 N13G25    30.07R
WICHITA INTL   MOSUNNY   72  34  24 N23G32    30.12R
WICHITA JABRA  SUNNY     70  34  26 NW18G31   30.12R
WINFIELD       SUNNY     71  37  28 N20G26    30.12R
$$

KSZ007>012-019>026-033>040-048>060-102>105-302300-
NORTHEAST KANSAS

CITY           SKY/WX    TMP DP  RH WIND       PRES   REMARKS
CONCORDIA      SUNNY     66  34  30 N21G31    30.15R
EMPORIA        SUNNY     68  35  29 NW21G29   30.08R
LAWRENCE       SUNNY     65  39  38 NW24G30   30.06R
MANHATTAN      SUNNY     69  37  30 N12G22    30.11R
OLATHE IND     SUNNY     64  39  39 NW18      30.06R
OLATHE EXE     SUNNY     66  38  35 NW17G30   30.04R
SALINA         SUNNY     69  34  27 N22G31    30.14R
TOPEKA BILLARD SUNNY     68  39  34 NW16      30.08R
TOPEKA FORBES  SUNNY     67  38  34 N17G28    30.07R
$$



USA.gov is the U.S. government's official web portal to all federal, state and local government web resources and services.